Starlink 1873

operational
NORAD ID: 47158 Int'l Des: 2020-088 Owner: SPXS Country: US Constellation: starlink
LEOCIRCULARSTARLINK_TYPE

Starlink 1873について

説明を読み込み中...

リアルタイム位置

3D地球を読み込み中...

次回通過

高度履歴

Altitude vs Time

uPlot chart will show altitude changes over time

軌道要素

1 47158U 20088AN 25351.33339120 .00079643 00000-0 42912-2 0 9992
2 47158 53.0537 301.1876 0001581 97.0585 310.4573 15.14110178 5798
Epoch: Dec 17, 2025 • Age: 6 hours

現在のステータス

高度 539.6 km
速度 7.59 km/s
衛星直下点 -44.82°S, 122.42°W
打ち上げ日 Nov 25, 2020
運用期間 5 years
タイプ internet

技術仕様

分類 Payload
質量 260.00 kg
乾燥質量 248.00 kg
総質量 260.00 kg
長さ 0.20 m
直径 2.80 m
スパン 9.00 m
形状 Box + pan
製造者 SPXS
バスタイプ Starlink
フェーズステータス In Orbit
所有者/国 SPXS/US

大規模コンステレーション

Loading constellations...